Flag for U.S.A. Weather past 2 weeks in Metlakatla, Alaska, U.S.A.

Now
49 °F

Fog.


Feels Like: 48 °F
Forecast: 54 / 66 °F
Wind: 3 mph from South

Location: Annette Island

Current Time: May 22, 2015 at 5:19:03 AM

Latest Report: May 22, 2015 at 4:53 AM


Visibility: 0 mi

Pressure: 30.01 "Hg

Humidity: 100%

Dew point: 49 °F

Location of MetlakatlaLocation

Historic Weather in Metlakatla — Graph

°F

Metlakatla temperature yesterday

Maximum temperature yesterday: 70 °F (at 2:53 PM)
Minimum temperature yesterday: 51 °F (at 4:53 AM)
Average temperature yesterday: 58 °F

Past Weeks' High & Low Weather Summary

 TemperatureHumidityPressure
High73 °F (May 17, 12:53 PM)100% (May 11, 2:53 AM)30.24 "Hg (May 11, 2:53 AM)
Low41 °F (May 12, 2:53 AM)25% (May 8, 2:53 PM)29.76 "Hg (May 12, 6:53 PM)
Average55 °F79%30.04 "Hg
* Reported May 7 3:53 AM — May 22 3:53 AM, Metlakatla, Weather by CustomWeather, © 2015

Note: Actual official high and low records may vary slightly from our data, if they occured in-between our weather recording intervals... More about our weather records

Advertising

Metlakatla weather history for previous 24 hours

 ConditionsComfort  
Time TempWeatherWind HumidityBarometerVisibility
3:53 AM
Fri, May 22
50 °FFog.No wind100%30.00 "Hg0 mi
2:53 AM50 °FFog.3 mph100%29.99 "Hg1 mi
1:53 AM52 °FPassing clouds.8 mph97%29.98 "Hg10 mi
12:53 AM52 °FClear.3 mph97%29.98 "Hg10 mi
11:53 PM
Thu, May 21
53 °FClear.3 mph96%29.98 "Hg10 mi
10:53 PM54 °FClear.No wind93%29.96 "Hg10 mi
9:53 PM56 °FSunny.6 mph87%29.96 "Hg10 mi
8:53 PM59 °FSunny.No wind78%29.96 "Hg10 mi
7:53 PM62 °FSunny.3 mph73%29.95 "Hg10 mi
6:53 PM66 °FSunny.3 mph68%29.95 "Hg10 mi
5:53 PM68 °FSunny.3 mph61%29.95 "Hg10 mi
4:53 PM67 °FPassing clouds.3 mph68%29.96 "Hg10 mi
3:53 PM66 °FPassing clouds.6 mph70%29.98 "Hg10 mi
2:53 PM70 °FPassing clouds.5 mph64%29.98 "Hg10 mi
1:53 PM68 °FPassing clouds.5 mph70%29.99 "Hg10 mi
12:53 PM66 °FPassing clouds.6 mph73%30.01 "Hg10 mi
11:53 AM65 °FScattered clouds.3 mph78%30.01 "Hg10 mi
10:53 AM61 °FLow clouds.5 mph83%30.02 "Hg10 mi
9:53 AM57 °FLow clouds.3 mph93%30.02 "Hg10 mi
9:02 AM54 °FFog.5 mph100%30.03 "Hg2 mi
8:53 AM54 °FFog.3 mph100%30.03 "Hg4 mi
7:53 AM52 °FFog.No wind100%30.03 "Hg1 mi
6:53 AM51 °FFog.No wind100%30.03 "Hg0 mi
5:53 AM51 °FFog.No wind100%30.03 "Hg0 mi
5:02 AM51 °FFog.3 mph100%30.03 "Hg1 mi
Weather by CustomWeather, © 2015

See weather overviewHow to use our weather pages